weather.gov     
National Weather Service

Regional Weather Roundup
NWS Homepage
This page is being discontinued on March 12, 2014.
The same data is available at this site. Please update your bookmarks.
Thank you, and we apologize for the inconvenience.
Please send an email to SR-SRH.Webmaster@noaa.gov with any concerns.


Current Version
Previous Version:    01  02  03  04  05  06  07  08  09  10  11  12  13  14  15  16  17  18  19  20  21  22  23  24  25  26  27  28  29  30  
   31  32  33  34  35  36  37  38  39  40  41  42  43  44  45  46  47  48  49  50  51  52  53  54  55  56  57  58  59  60  
[Printable]
795
ASUS44 KSJT 230802
RWRSJT
WEST CENTRAL TEXAS REGIONAL WEATHER ROUNDUP
NATIONAL WEATHER SERVICE SAN ANGELO TX
300 AM CDT WED APR 23 2014

NOTE: "FAIR" INDICATES FEW OR NO CLOUDS BELOW 12,000 FEET WITH NO
SIGNIFICANT WEATHER AND/OR OBSTRUCTIONS TO VISIBILITY.

TXZ049-054-064>066-071>073-076>078-098-099-113-114-127-128-139-140-
154-155-168>170-230900
...LOCATIONS ACROSS WEST CENTRAL TEXAS...

CITY           SKY/WX    TMP DP  RH WIND       PRES   REMARKS
SAN ANGELO     CLEAR     67  51  56 SE7       29.91F
ABILENE        CLEAR     65  51  60 S13       29.91F
DYESS AFB      CLEAR     65  51  60 SE15      29.91F
JUNCTION       CLEAR     64  54  69 E3        29.94F
SWEETWATER     NOT AVBL
BROWNWOOD      CLEAR     55  50  82 CALM      29.95S
COLEMAN        NOT AVBL
SONORA         NOT AVBL
OZONA          NOT AVBL
BRADY          NOT AVBL
$$

TEXAS PANHANDLE/OKLAHOMA PANHANDLE

CITY           SKY/WX    TMP DP  RH WIND       PRES   REMARKS
AMARILLO       CLEAR     64  39  39 S23G33    29.88F
BORGER         CLEAR     65  43  44 S23G32    29.83F
CANADIAN       NOT AVBL
DALHART        PTCLDY    63  35  35 S20       29.86F
DUMAS          NOT AVBL
GUYMON         NOT AVBL
HEREFORD       NOT AVBL
PAMPA          NOT AVBL
PERRYTON       NOT AVBL
$$

SOUTHERN PANHANDLE/SOUTH PLAINS/ROLLING PLAINS

CITY           SKY/WX    TMP DP  RH WIND       PRES   REMARKS
LUBBOCK        CLEAR     63  42  46 S15       29.90F
SNYDER         NOT AVBL
CHILDRESS      CLEAR     63  47  55 S14       29.88F
SEMINOLE       SUNNY     64  44  47 S10       29.90F
$$

PERMIAN BASIN

CITY           SKY/WX    TMP DP  RH WIND       PRES   REMARKS
MIDLAND        CLEAR     68  49  50 SE17      29.89F
ODESSA           N/A    N/A N/A N/A MISG      29.89F
WINK           CLEAR     70  46  42 SE12      29.84F
$$

FAR WEST/SOUTHWEST MOUNTAINS/TRANS PECOS

CITY           SKY/WX    TMP DP  RH WIND       PRES   REMARKS
ALPINE         NOT AVBL
DRYDEN           N/A     76  52  43 E14       29.88F
EL PASO        CLOUDY    76  25  15 SW9       29.84F
FORT STOCKTON  PTCLDY    72  50  45 SE21G31   29.86F
GUADALUPE PASS CLOUDY    65  41  41 SW16      29.99S
MARFA          PTCLDY    61  45  55 SE5       30.00F
PECOS          MOSUNNY   61  52  73 E7        29.84S
$$

DALLAS/FORT WORTH METROPLEX

CITY           SKY/WX    TMP DP  RH WIND       PRES   REMARKS
DFW AIRPORT    CLEAR     67  56  67 CALM      29.92F
FTW MEACHAM    CLEAR     64  57  78 CALM      29.92F
DAL-EXECUTIVE  CLEAR     61  57  87 CALM      29.92F
GRAND PRAIRIE  CLEAR     64  55  72 CALM      29.95F
ADDISON        CLEAR     66  55  67 CALM      29.94F
MESQUITE       SUNNY     58  56  92 CALM      29.93F
LANCASTER      SUNNY     58  56  91 CALM      29.94F
$$

NORTH CENTRAL TEXAS

CITY           SKY/WX    TMP DP  RH WIND       PRES   REMARKS
SHRMAN/DENISON SUNNY     64  46  50 E6        29.94F
GAINESVILLE    NOT AVBL
BRIDGEPORT     SUNNY     56  55  97 CALM      29.94F
DENTON         CLEAR     57  55  93 CALM      29.93F
WAXAHACHIE     SUNNY     60  57  91 CALM      29.94F
GRANBURY       SUNNY     61  56  85 CALM      29.95S
$$

WESTERN NORTH TEXAS

CITY           SKY/WX    TMP DP  RH WIND       PRES   REMARKS
WICHITA FALLS  CLEAR     60  54  80 S10       29.89F
VERNON         SUNNY     62  54  73 SE9       29.90F
BRECKENRIDGE   NOT AVBL
COMANCHE       CLEAR     61  55  78 SE6       29.94F
$$

CENTRAL AND SOUTH CENTRAL TEXAS

CITY           SKY/WX    TMP DP  RH WIND       PRES   REMARKS
AUSTIN/BERGSTM CLEAR     58  56  93 CALM      29.93F
WACO           CLEAR     60  56  86 CALM      29.93F
HILLSBORO      SUNNY     65  55  69 E8        29.93F
TEMPLE         CLEAR     63  54  72 CALM      29.97S
KILLEEN-GRAY   CLEAR     66  57  72 E7        29.93F
FORT HOOD      NOT AVBL
GEORGETOWN     CLEAR     57  54  88 CALM      29.94F
LAGO VISTA     FAIR      67  57  69 E5        29.95F
SAN MARCOS     CLEAR     59  46  63 CALM      29.95F
NEW BRAUNFELS  CLEAR     63  57  81 CALM      29.92F
RANDOLPH AFB   CLEAR     62  58  84 CALM      29.93F
SAN ANTONIO    CLEAR     69  61  75 CALM      29.93F
STINSON        CLEAR     66  60  81 CALM      29.91F
PLEASANTON     NOT AVBL
LA GRANGE      CLEAR     68  66  93 CALM      29.91F
GIDDINGS       SUNNY     60  57  89 CALM      29.97F
$$

EAST TEXAS

CITY           SKY/WX    TMP DP  RH WIND       PRES   REMARKS
PARIS          CLEAR     57  48  72 E7        29.94S
CLARKSVILLE    NOT AVBL
TYLER          CLEAR     62  57  83 CALM      29.93F
LONGVIEW       CLEAR     60  57  89 CALM      29.93F
PALESTINE      SUNNY     57  54  88 CALM      29.95F
NACOGDOCHES    CLEAR     55  52  88 CALM      29.94F
$$

TEXAS HILL COUNTRY AND EDWARDS PLATEAU

CITY           SKY/WX    TMP DP  RH WIND       PRES   REMARKS
LLANO          NOT AVBL
HORSESHOE BAY  FAIR      63  54  72 S5        29.93F
KERRVILLE      NOT AVBL
FREDERICKSBRG  NOT AVBL
ROCKSPRINGS    NOT AVBL
HONDO          PTCLDY    70  61  73 E6        29.93F
UVALDE         NOT AVBL
DEL RIO        CLEAR     74  55  51 E9        29.86F
$$

SOUTHEAST TEXAS

CITY           SKY/WX    TMP DP  RH WIND       PRES   REMARKS
COLLEGE STN    CLEAR     65  59  81 CALM      29.93F
CALDWELL       NOT AVBL
CROCKETT       NOT AVBL
BRENHAM        NOT AVBL
HUNTSVILLE     CLEAR     70  59  68 CALM      29.94S
CONROE         CLEAR     57  57 100 CALM      29.94F
HOUSTON BUSH   CLEAR     66  65  96 CALM      29.93F
HOUSTON HOBBY  CLOUDY    68  67  96 SW5       29.93F FOG
PERLAND        FOG       67  66  97 CALM      29.95F VSB 1/4
WHARTON        SUNNY     65  64  97 CALM      29.93F FOG
$$

THE UPPER TEXAS COAST

CITY           SKY/WX    TMP DP  RH WIND       PRES   REMARKS
ORANGE         FOG       62  62 100 CALM      29.95S VSB 1/2
PORT ARTHUR    FOG       65  64  97 CALM      29.93F VSB<1/4
GALVESTON      CLEAR     69  69 100 SW3       29.94F
ANGLETON       FOG       63  63 100 CALM      29.93F VSB 1/4
BAY CITY       NOT AVBL
$$

TEXAS COASTAL BEND, RIO GRANDE PLAINS DEEP SOUTH TEXAS

CITY           SKY/WX    TMP DP  RH WIND       PRES   REMARKS
VICTORIA       PTCLDY    65  64  97 S5        29.93F FOG
BEEVILLE       FAIR      67  67 100 SE5       29.91F
ROCKPORT       CLEAR     70  68  93 S3        29.92F
PORT ARANSAS   NOT AVBL
PORT LAVACA    NOT AVBL
CORPUS CHRISTI PTCLDY    69  66  90 SE7       29.91F
KINGSVILLE NAS CLEAR     66  64  93 SE6       29.91F
COTULLA        CLEAR     72  63  73 SE8       29.89F
LAREDO         CLEAR     75  68  79 SE13      29.91F
BROWNSVILLE    CLEAR     68  67  96 S7        29.92F
PORT ISABEL    NOT AVBL
HEBBRONVILLE   NOT AVBL
MCALLEN        MOCLDY    71  69  93 S7        29.90F
WESLACO        NOT AVBL
FALFURRIAS     SUNNY     69  65  88 SE5       29.90F
EDINBURG       PTSUNNY   70  66  88 S3        29.90F
$$




U.S. Dept. of Commerce
NOAA National Weather Service
1325 East West Highway
Silver Spring, MD 20910
E-mail: w-nws.webmaster@noaa.gov
Page last modified: May 16, 2007
NATIONAL WEATHER SERVICE: for Safety, for Work, for Fun - FOR LIFE